Weather History for PASC - March, 2014

Change the Weather History Date:

Monday, March 24, 2014

  Actual Average Record
Temperature  
Mean Temperature -6 °F -  
Max Temperature 0 °F -5 °F 17 °F (2002)
Min Temperature -11 °F -19 °F -40 °F (2007)
Degree Days  
Heating Degree Days 70    
Moisture  
Dew Point -11 °F    
Average Humidity 78    
Maximum Humidity 84    
Minimum Humidity 71    
Precipitation  
Precipitation 0.00 in - - ()
Sea Level Pressure  
Sea Level Pressure 30.53 in    
Wind  
Wind Speed 9 mph (ESE)    
Max Wind Speed 14 mph    
Max Gust Speed -    
Visibility 10 miles    
Events      
Averages and records for this station are not official NWS values.
T = Trace of Precipitation, MM = Missing Value Source: NWS Daily Summary

Daily Weather History Graph

Daily Weather History Graph

Search for Another Location

Airport or City:

Trip Planner

Search our weather history database for the weather conditions in past years. The results will help you decide how hot, cold, wet, or windy it might be!

Date:

Astronomy

Mar. 24, 2014 Rise Set
Actual Time 7:32 AM AKDT 8:29 PM AKDT
Civil Twilight 6:29 AM AKDT 9:33 PM AKDT
Nautical Twilight 5:06 AM AKDT 10:58 PM AKDT
Astronomical Twilight 2:41 AM AKDT 1:27 AM AKDT
Moon 6:52 AM AKDT (3/24) 10:27 AM AKDT (3/24)
Length of Visible Light 15h 03m
Length of Day
12h 56m
Last Quarter, 41% of the Moon is Illuminated
Mar 24
Last Quarter
Mar 30
New
Apr 7
First Quarter
Apr 14
Full
Apr 21
Last Quarter

Hourly Weather History & Observations

Time (AKDT) Temp. Windchill Dew Point Humidity Pressure Visibility Wind Dir Wind Speed Gust Speed Precip Events Conditions
12:53 AM -6.0 °F -23.6 °F -11.0 °F 79% 30.56 in 10.0 mi SW 10.4 mph - N/A   Clear
1:53 AM -6.0 °F -23.6 °F -11.0 °F 79% 30.57 in 10.0 mi WSW 10.4 mph - N/A   Clear
2:53 AM -8.0 °F -23.9 °F -11.9 °F 83% 30.57 in 10.0 mi SW 8.1 mph - N/A   Clear
3:53 AM -8.0 °F -23.9 °F -13.0 °F 79% 30.56 in 10.0 mi WSW 8.1 mph - N/A   Clear
4:53 AM -11.0 °F - -16.1 °F 78% 30.56 in 10.0 mi North - - N/A   Clear
5:53 AM -11.0 °F -28.8 °F -16.1 °F 78% 30.56 in 10.0 mi WSW 9.2 mph - N/A   Clear
6:53 AM -9.9 °F -24.9 °F -15.0 °F 78% 30.57 in 10.0 mi SW 6.9 mph - N/A   Scattered Clouds
7:53 AM -9.9 °F -24.9 °F -15.0 °F 78% 30.56 in 10.0 mi WSW 6.9 mph - N/A   Scattered Clouds
8:53 AM -9.9 °F -23.4 °F -16.1 °F 74% 30.56 in 10.0 mi WSW 5.8 mph - N/A   Partly Cloudy
9:53 AM -9.9 °F -27.5 °F -17.0 °F 71% 30.56 in 10.0 mi WSW 9.2 mph - N/A   Partly Cloudy
10:53 AM -7.6 °F - -11.2 °F 84% 30.55 in 10.0 mi Calm Calm - N/A   Partly Cloudy
11:53 AM -7.1 °F - -13.0 °F 75% 30.55 in 10.0 mi Calm Calm - N/A   Clear
12:53 PM -5.1 °F -17.6 °F -11.0 °F 76% 30.55 in 10.0 mi ENE 5.8 mph - N/A   Clear
1:53 PM -2.0 °F -13.9 °F -9.0 °F 72% 30.55 in 10.0 mi ENE 5.8 mph - 0.00 in   Clear
2:53 PM -0.9 °F -15.3 °F -7.1 °F 75% 30.54 in 10.0 mi East 8.1 mph - N/A   Clear
3:53 PM -0.0 °F -14.2 °F -6.0 °F 76% 30.53 in 10.0 mi East 8.1 mph - N/A   Clear
4:53 PM -0.0 °F -14.2 °F -6.0 °F 76% 30.52 in 10.0 mi East 8.1 mph - N/A   Clear
5:53 PM -0.0 °F -18.0 °F -6.0 °F 76% 30.50 in 10.0 mi East 12.7 mph - N/A   Clear
6:53 PM -2.0 °F -18.7 °F -7.1 °F 79% 30.49 in 10.0 mi East 10.4 mph - N/A   Clear
7:53 PM -4.0 °F -23.0 °F -8.0 °F 83% 30.48 in 10.0 mi East 12.7 mph - N/A   Clear
8:53 PM -6.0 °F -24.6 °F -9.9 °F 83% 30.47 in 10.0 mi East 11.5 mph - N/A   Clear
9:53 PM -7.1 °F -26.8 °F -11.0 °F 83% 30.45 in 10.0 mi East 12.7 mph - N/A   Clear
10:53 PM -9.0 °F -30.2 °F -13.0 °F 83% 30.44 in 10.0 mi East 13.8 mph - N/A   Clear
11:53 PM -9.0 °F -30.2 °F -13.0 °F 83% 30.44 in 10.0 mi East 13.8 mph - N/A   Clear